Location: Newark
(52.3500°N, 175.9667°E)
Time: 17:19:39
(UTC+00:00)

X-37B - Pass Details

Date: 14 March 2021
Orbit: 380 x 394 km, 45.0° (Epoch: 07 April)

Event Time Altitude Azimuth Distance (km) Brightness Sun altitude
Rises 08:48:16 0° 243° (WSW) 2,274 5.0 -22.9°
Reaches altitude 10° 08:50:37 10° 227° (SW) 1,422 3.6 -23.2°
Enters shadow 08:50:42 10° 226° (SW) 1,398 3.6 -23.2°
